Location: ????????
(55.8351°N, 38.7040°E)
Time: 12:33:52
(UTC+00:00)

NOSS 3-4 (C) - Pass Details

Date: 14 April 2024
Orbit: 806 x 1406 km, 63.4° (Epoch: 20 May)

Event Time Altitude Azimuth Distance (km) Brightness Sun altitude
Exits shadow 00:16:59 24° 231° (SW) 1,694 4.2 -15.6°
Maximum altitude 00:20:33 90° 323° (NW) 899 3.3 -15.3°
Drops below altitude 10° 00:26:54 10° 53° (NE) 2,749 7.3 -14.6°
Sets 00:29:40 0° 53° (NE) 3,791 8.5 -14.3°
